USGS - science for a changing world

Kansas Water Science Center

Jump to content

Jump back to navigation

Current Streamflow Conditions

Welcome to the U.S. Geological Survey (USGS) Web page for the water resources of Kansas. Here you'll find information on Kansas's rivers and streams. You'll also find information about groundwater, water quality, and many other topics. The USGS operates the most extensive satellite network of stream-gaging stations in the state, many of which form the backbone of flood-warning systems.

The Kansas Water Science Center provides current ("real-time") stream stage in Kansas and streamflow, water-quality, and groundwater levels for over 200 sites.
The USGS provides National ("real-time") stream stage and streamflow, water-quality, and groundwater levels for over 7000 sites.

Of Current Interest

Scientific Investigations Report: Spatial variability of harmful algal blooms in Milford Lake, Kansas, July and August 2015

Status of groundwater levels and storage volume in the Equus Beds aquifer near Wichita, Kansas, January 2016

Predicting cyanobacterial abundance, microcystin, and geosmin in a eutrophic drinking-water reservoir using a 14-year dataset.

Spatiotemporal variability of inorganic nutrients during wastewater effluent dominated streamflow conditions in Indian Creek, Johnson County, Kansas, 2012-15.

Cyanobacterial harmful algal blooms and U.S. Geological Survey science capabilities.

Elucidation of taste- and odor-producing bacteria and toxigenic cyanobacteria in a Midwestern drinking water supply reservoir by shotgun metagenomics analysis.

Challenges for mapping cyanotoxin patterns from remote sensing of cyanobacteria.

USGS WaterAlert Service Turn Around Don't Drown

Now you can receive instant, customized updates about water conditions by subscribing to WaterAlert, a new service from the U.S. Geological Survey. WaterAlert allows you to receive daily or hourly updates about current conditions in rivers, lakes and groundwater when they match conditions of concern to you.

Kansas Earthquakes - Last 30 days

  1. 1.68 20km E of Anthony, Kansas 2017-01-12 22:58:02 CST
  2. 2.12 4km ESE of Caldwell, Kansas 2017-01-11 21:12:57 CST
  3. 1.88 12km E of Caldwell, Kansas 2017-01-11 01:02:11 CST
  4. 1.53 2km E of Anthony, Kansas 2017-01-11 00:23:14 CST
  5. 2.1 20km E of Anthony, Kansas 2017-01-11 00:21:39 CST
  6. 1.54 11km W of Caldwell, Kansas 2017-01-08 09:34:10 CST
  7. 1.8 6km S of Harper, Kansas 2017-01-07 18:49:33 CST
  8. 1.83 6km S of Harper, Kansas 2017-01-07 01:07:32 CST
  9. 2.7 13km SE of Anthony, Kansas 2017-01-06 23:44:26 CST
  10. 2.23 19km WNW of Caldwell, Kansas 2017-01-06 22:40:41 CST
  11. 1.6 18km WNW of Caldwell, Kansas 2017-01-05 22:29:09 CST
  12. 1.79 9km SSE of Anthony, Kansas 2017-01-05 03:31:52 CST
  13. 1.81 20km E of Anthony, Kansas 2017-01-03 02:35:54 CST
  14. 1.87 13km ESE of Harper, Kansas 2017-01-02 17:43:02 CST
  15. 1.5 7km S of Anthony, Kansas 2017-01-01 18:45:22 CST
  16. 1.56 7km S of Anthony, Kansas 2017-01-01 17:59:11 CST
  17. 2.03 9km SSW of Anthony, Kansas 2017-01-01 11:51:04 CST
  18. 2.01 14km ESE of Harper, Kansas 2017-01-01 05:59:10 CST
  19. 2.11 18km ESE of Anthony, Kansas 2017-01-01 04:58:53 CST
  20. 2.5 9km SSW of Cheney, Kansas 2016-12-31 15:15:09 CST
  21. 2.4 8km SSW of Cheney, Kansas 2016-12-29 02:49:23 CST
  22. 1.59 9km SSW of Anthony, Kansas 2016-12-28 01:01:48 CST
  23. 1.59 13km E of Harper, Kansas 2016-12-27 09:40:20 CST
  24. 1.6 15km ESE of Harper, Kansas 2016-12-26 17:07:20 CST
  25. 1.52 5km NE of Caldwell, Kansas 2016-12-24 10:42:35 CST
  26. 1.72 15km ESE of Harper, Kansas 2016-12-22 16:27:58 CST
  27. 2.8 15km ESE of Harper, Kansas 2016-12-22 08:46:57 CST
  28. 2.9 8km SSW of Cheney, Kansas 2016-12-21 09:12:49 CST
  29. 1.55 13km W of Wellington, Kansas 2016-12-21 01:57:45 CST
  30. 1.77 4km ESE of Caldwell, Kansas 2016-12-20 20:00:31 CST
  31. 1.67 16km E of Harper, Kansas 2016-12-19 14:33:40 CST

Highlighted Publications

The Kansas Water Science Center produces publications about water resources.   Search our publications

07179795: Flow=91cfs,Stage=5.51ft,2017-01-17 13:30,High,N COTTONWOOD R BL MARION LK, KS 07151500: Flow=2170cfs,Stage=6.10ft,Floodstage=10ft,2017-01-17 14:00,High,CHIKASKIA R NR CORBIN, KS 07145700: Flow=875cfs,Stage=12.45ft,Floodstage=19ft,2017-01-17 14:00,High,SLATE C AT WELLINGTON, KS 07145500: Flow=3450cfs,Stage=8.88ft,Floodstage=17ft,2017-01-17 14:00,High,NINNESCAH R NR PECK, KS 07145200: Flow=681cfs,Stage=4.97ft,Floodstage=8ft,2017-01-17 14:00,High,SF NINNESCAH R NR MURDOCK, KS 07144780: Flow=350cfs,Stage=7.67ft,2017-01-17 13:30,High,NF NINNESCAH R AB CHENEY RE, KS 07144550: Flow=2590cfs,Stage=3.89ft,Floodstage=12ft,2017-01-17 14:00,High,ARKANSAS R AT DERBY, KS 06888000: Flow=530cfs,Stage=6.18ft,2017-01-17 13:45,High,VERMILLION C NR WAMEGO, KS 06882510: Flow=1000cfs,Stage=13.74ft,Floodstage=35ft,2017-01-17 13:30,High,BIG BLUE R AT MARYSVILLE, KS 06873000: Flow=116cfs,Stage=2.71ft,Floodstage=8.5ft,2017-01-17 13:15,High,SF SOLOMON R AB WEBSTER RE, KS 06856000: Flow=1620cfs,Stage=7.84ft,Floodstage=15ft,2017-01-17 13:30,High,REPUBLICAN R AT CONCORDIA, KS 06853800: Flow=240cfs,Stage=5.86ft,Floodstage=16ft,2017-01-17 13:45,High,WHITE ROCK C NR BURR OAK, KS 06847900: Flow=19cfs,Stage=3.99ft,Floodstage=11ft,2017-01-17 13:45,High,PRAIRIE DOG C AB KEITH SEBELIUS LAKE, KS 07188000: Flow=5720cfs,Stage=9.67ft,Floodstage=20ft,2017-01-17 13:00,>90,Spring River near Quapaw, OK 07186000: Flow=2270cfs,Stage=4.93ft,Floodstage=19ft,2017-01-17 13:30,>90,Spring River near Waco, MO 07180500: Flow=74cfs,Stage=4.81ft,2017-01-17 13:15,>90,CEDAR C NR CEDAR POINT, KS 07180400: Flow=571cfs,2017-01-17 13:45,Stage=4.52ft,2017-01-17 14:00:00,Floodstage=22ft,>90,COTTONWOOD R NR FLORENCE, KS 07179500: Flow=123cfs,Stage=8.79ft,2017-01-17 14:00,>90,NEOSHO R AT COUNCIL GROVE, KS 07172000: Flow=710cfs,Stage=2.92ft,2017-01-17 14:00,>90,CANEY R NR ELGIN, KS 07169800: Flow=460cfs,Stage=4.68ft,2017-01-17 14:00,>90,ELK R AT ELK FALLS, KS 07167500: Flow=145cfs,Stage=3.60ft,2017-01-17 13:15,>90,OTTER C AT CLIMAX, KS 07149000: Flow=363cfs,Stage=2.10ft,Floodstage=10ft,2017-01-17 13:30,>90,MEDICINE LODGE R NR KIOWA, KS 07147800: Flow=2200cfs,Stage=4.87ft,Floodstage=18ft,2017-01-17 14:00,>90,WALNUT R AT WINFIELD, KS 07147070: Flow=1180cfs,Stage=6.66ft,2017-01-17 13:30,>90,WHITEWATER R AT TOWANDA, KS 07146500: Flow=6830cfs,Stage=7.77ft,Floodstage=11ft,2017-01-17 14:00,>90,ARKANSAS R AT ARKANSAS CITY, KS 07144300: Flow=1820cfs,Stage=5.74ft,2017-01-17 13:45,>90,ARKANSAS R AT WICHITA, KS 07144200: Flow=886cfs,Stage=5.27ft,2017-01-17 13:00,>90,L ARKANSAS R AT VALLEY CENTER, KS 07143665: Flow=304cfs,Stage=3.81ft,Floodstage=22ft,2017-01-17 13:15,>90,L ARKANSAS R AT ALTA MILLS, KS 06917500: Flow=532cfs,Stage=12.36ft,Floodstage=38ft,2017-01-17 13:30,>90,MARMATON R NR FORT SCOTT, KS 06917000: Flow=406cfs,Stage=6.04ft,Floodstage=22ft,2017-01-17 13:15,>90,L OSAGE R AT FULTON, KS 06916600: Flow=2350cfs,Stage=8.31ft,Floodstage=27ft,2017-01-17 13:45,>90,MARAIS DES CYGNES R NR KS-MO ST LINE, KS 06911900: Flow=92cfs,Stage=8.45ft,Floodstage=19ft,2017-01-17 13:00,>90,DRAGOON C NR BURLINGAME, KS 06910800: Flow=100cfs,Stage=3.23ft,Floodstage=19ft,2017-01-17 13:45,>90,MARAIS DES CYGNES R NR READING, KS 06890100: Flow=605cfs,Stage=5.38ft,Floodstage=27ft,2017-01-17 14:00,>90,DELAWARE R NR MUSCOTAH, KS 06889500: Flow=134cfs,Stage=1.13ft,Floodstage=29ft,2017-01-17 14:00,>90,SOLDIER C NR TOPEKA, KS 06889200: Flow=152cfs,Stage=8.12ft,Floodstage=26ft,2017-01-17 13:30,>90,SOLDIER C NR DELIA, KS 06885500: Flow=897cfs,Stage=8.11ft,Floodstage=19ft,2017-01-17 13:30,>90,BLACK VERMILLION R NR FRANKFORT, KS 06884400: Flow=638cfs,Stage=4.99ft,Floodstage=21ft,2017-01-17 13:30,>90,L BLUE R NR BARNES, KS 06884200: Flow=519cfs,Stage=6.01ft,Floodstage=18ft,2017-01-17 13:45,>90,MILL C AT WASHINGTON, KS 06879100: Flow=3300cfs,Stage=7.85ft,Floodstage=21ft,2017-01-17 13:30,>90,KANSAS R AT FORT RILEY, KS 06878000: Flow=563cfs,Stage=9.66ft,Floodstage=19ft,2017-01-17 13:45,>90,CHAPMAN C NR CHAPMAN, KS 06877600: Flow=1780cfs,Stage=9.75ft,Floodstage=26ft,2017-01-17 13:45,>90,SMOKY HILL R AT ENTERPRISE, KS 06876900: Flow=990cfs,Stage=8.61ft,Floodstage=24ft,2017-01-17 13:30,>90,SOLOMON R AT NILES, KS 06876700: Flow=102cfs,Stage=6.26ft,Floodstage=18ft,2017-01-17 13:45,>90,SALT C NR ADA, KS 06875900: Flow=838cfs,Stage=11.33ft,Floodstage=21ft,2017-01-17 13:30,>90,SOLOMON R NR GLEN ELDER, KS 06869500: Flow=270cfs,Stage=8.75ft,Floodstage=25ft,2017-01-17 13:30,>90,SALINE R AT TESCOTT, KS 06868200: Flow=216cfs,Stage=6.23ft,2017-01-17 13:45,>90,SALINE R AT WILSON DAM, KS 06866500: Flow=375cfs,Stage=5.83ft,Floodstage=20ft,2017-01-17 13:45,>90,SMOKY HILL R NR MENTOR, KS 06866000: Flow=234cfs,Stage=7.77ft,Floodstage=21ft,2017-01-17 13:30,>90,SMOKY HILL R AT LINDSBORG, KS 06856600: Flow=1880cfs,Stage=10.18ft,Floodstage=15ft,2017-01-17 14:00,>90,REPUBLICAN R AT CLAY CENTER, KS 06814000: Flow=319cfs,Stage=3.66ft,Floodstage=21ft,2017-01-17 13:45,>90,TURKEY C NR SENECA, KS 06813500: Flow=38200cfs,Stage=7.97ft,Floodstage=17ft,2017-01-17 13:30,>90,Missouri River at Rulo, NE 06827500: Flow=0.00cfs,Stage=-0.01ft,Floodstage=9ft,2017-01-17 12:30,<10,South Fork Republican River near Benkelman, Nebr. 07185000: Flow=2800cfs,Stage=4.44ft,Floodstage=15ft,2017-01-17 13:30,76-90,Neosho River near Commerce, OK 07184000: Flow=241cfs,Stage=3.14ft,Floodstage=12ft,2017-01-17 13:45,76-90,LIGHTNING C NR MCCUNE, KS 07183000: Flow=1920cfs,Stage=8.16ft,Floodstage=15ft,2017-01-17 13:00,76-90,NEOSHO R NR IOLA, KS 07182510: Flow=1210cfs,Stage=8.04ft,Floodstage=27ft,2017-01-17 13:15,76-90,NEOSHO R AT BURLINGTON, KS 07169500: Flow=414cfs,Stage=4.53ft,Floodstage=17ft,2017-01-17 14:00,76-90,FALL R AT FREDONIA, KS 07166500: Flow=569cfs,Stage=4.55ft,Floodstage=19ft,2017-01-17 13:45,76-90,VERDIGRIS R NR ALTOONA, KS 07143300: Flow=25cfs,Stage=5.22ft,Floodstage=18ft,2017-01-17 13:30,76-90,COW C NR LYONS, KS 06915000: Flow=165cfs,Stage=3.21ft,2017-01-17 13:30,76-90,BIG BULL C NR HILLSDALE, KS 06913500: Flow=447cfs,Stage=5.66ft,Floodstage=31ft,2017-01-17 13:30,76-90,MARAIS DES CYGNES R NR OTTAWA, KS 06913000: Flow=347cfs,Stage=2.65ft,Floodstage=20ft,2017-01-17 13:30,76-90,MARAIS DES CYGNES R NR POMONA, KS 06912500: Flow=120cfs,Stage=3.53ft,2017-01-17 13:45,76-90,HUNDRED AND TEN MILE C NR QUENEMO, KS 06911000: Flow=241cfs,Stage=3.93ft,2017-01-17 13:45,76-90,MARAIS DES CYGNES R AT MELVERN, KS 06893500: Flow=129cfs,Stage=4.86ft,Floodstage=34ft,2017-01-17 13:45,76-90,Blue River at Kansas City, MO 06893300: Flow=31cfs,Stage=5.90ft,Floodstage=14ft,2017-01-17 13:15,76-90,INDIAN C AT OVERLAND PARK, KS 06893080: Flow=21cfs,Stage=4.15ft,Floodstage=16ft,2017-01-17 13:45,76-90,BLUE R NR STANLEY, KS 06892350: Flow=4200cfs,Stage=6.22ft,Floodstage=26ft,2017-01-17 13:45,76-90,KANSAS R AT DESOTO, KS 06892000: Flow=105cfs,Stage=3.19ft,Floodstage=23ft,2017-01-17 13:30,76-90,STRANGER C NR TONGANOXIE, KS 06891000: Flow=3330cfs,Stage=3.31ft,Floodstage=17ft,2017-01-17 13:30,76-90,KANSAS R AT LECOMPTON, KS 06889000: Flow=3110cfs,Stage=6.18ft,Floodstage=26ft,2017-01-17 13:30,76-90,KANSAS R AT TOPEKA, KS 06888350: Flow=3530cfs,Stage=7.39ft,Floodstage=20ft,2017-01-17 13:30,76-90,KANSAS R NR BELVUE, KS 06857100: Flow=466cfs,Stage=5.83ft,2017-01-17 13:30,76-90,REPUBLICAN R AT JUNCTION CITY, KS 06818000: Flow=35300cfs,Stage=6.27ft,Floodstage=17ft,2017-01-17 13:30,76-90,Missouri River at St. Joseph, MO 07156900: Flow=28cfs,Stage=2.52ft,Floodstage=5ft,2017-01-17 13:00,10-24,Cimarron River near Forgan, OK 07144910: Flow=8.7cfs,Stage=2.66ft,Floodstage=9ft,2017-01-17 14:00,10-24,SF NINNESCAH R NR PRATT, KS 07142300: Flow=0.25cfs,Stage=3.16ft,Floodstage=9ft,2017-01-17 14:00,10-24,RATTLESNAKE C NR MACKSVILLE, KS 07139000: Flow=1.00cfs,Stage=5.62ft,Floodstage=10ft,2017-01-17 13:30,10-24,ARKANSAS R AT GARDEN CITY, KS 06864000: Flow=7.5cfs,Stage=3.40ft,Floodstage=18ft,2017-01-17 13:30,10-24,SMOKY HILL R NR RUSSELL, KS 07182250: Flow=289cfs,Stage=3.90ft,Floodstage=32ft,2017-01-17 14:00,25-75,COTTONWOOD R NR PLYMOUTH, KS 07179730: Flow=84cfs,Stage=3.36ft,Floodstage=26ft,2017-01-17 13:15,25-75,NEOSHO R NR AMERICUS, KS 07170500: Flow=1350cfs,Stage=5.72ft,Floodstage=30ft,2017-01-17 14:00,25-75,VERDIGRIS R AT INDEPENDENCE, KS 07157500: Flow=13cfs,Stage=2.79ft,Floodstage=6.5ft,2017-01-17 13:30,25-75,CROOKED C NR ENGLEWOOD, KS 07143330: Flow=261cfs,Stage=2.75ft,Floodstage=10ft,2017-01-17 13:45,25-75,ARKANSAS R NR HUTCHINSON, KS 07142575: Flow=26cfs,Stage=12.34ft,Floodstage=17ft,2017-01-17 13:30,25-75,RATTLESNAKE C NR ZENITH, KS 07141300: Flow=14cfs,Stage=1.25ft,Floodstage=12ft,2017-01-17 13:30,25-75,ARKANSAS R AT GREAT BEND, KS 07138000: Flow=141cfs,Stage=4.57ft,Floodstage=10ft,2017-01-17 13:15,25-75,ARKANSAS R AT SYRACUSE, KS 07137500: Flow=145cfs,Stage=3.15ft,Floodstage=8ft,2017-01-17 13:15,25-75,ARKANSAS R NR COOLIDGE, KS 06915800: Flow=1050cfs,Stage=6.56ft,Floodstage=25ft,2017-01-17 13:15,25-75,MARAIS DES CYGNES R AT LA CYGNE, KS 06893000: Flow=36300cfs,Stage=8.51ft,Floodstage=32ft,2017-01-17 13:30,25-75,Missouri River at Kansas City, MO 06891500: Flow=21cfs,Stage=4.48ft,Floodstage=23ft,2017-01-17 13:45,25-75,WAKARUSA R NR LAWRENCE, KS 06890900: Flow=174cfs,Stage=28.59ft,2017-01-17 13:30,25-75,DELAWARE R AT PERRY, KS 06888500: Flow=44cfs,Stage=2.75ft,Floodstage=21ft,2017-01-17 13:45,25-75,MILL C NR PAXICO, KS 06887000: Flow=468cfs,Stage=1.49ft,Floodstage=19ft,2017-01-17 13:00,25-75,BIG BLUE R NR MANHATTAN, KS 06865500: Flow=47cfs,Stage=3.18ft,2017-01-17 13:30,25-75,SMOKY HILL R NR LANGLEY, KS 06864500: Flow=56cfs,Stage=1.70ft,Floodstage=20ft,2017-01-17 13:30,25-75,SMOKY HILL R AT ELLSWORTH, KS 06861000: Flow=0.58cfs,Stage=0.67ft,Floodstage=7ft,2017-01-17 13:30,25-75,SMOKY HILL R NR ARNOLD, KS 06860000: Flow=0.31cfs,Stage=3.97ft,Floodstage=9ft,2017-01-17 13:30,25-75,SMOKY HILL R AT ELKADER, KS 385520094420000: Flow=15cfs,2013-07-17 23:45,Not ranked,INDIAN C AT COLLEGE BLVD, JOHNSON CO, KS 375350097262800: Stage=8.73ft,2017-01-17 13:00,Not ranked,L ARKANSAS R UPSTREAM OF ASR FAC NR SEDGWICK, KS 07187600: Flow=3980cfs,Stage=5.01ft,Floodstage=14ft,2017-01-17 13:30,Not ranked,SPRING R NR BAXTER SPRINGS, KS 07186055: Flow=282cfs,Stage=6.97ft,2017-01-17 13:45,Not ranked,COW C NR SCAMMON, KS 07185090: Flow=44cfs,Stage=9.09ft,2017-01-17 13:15,Not ranked,Tar Creek near Commerce, OK 07184500: Flow=185cfs,Stage=7.33ft,2017-01-17 13:00,Not ranked,LABETTE C NR OSWEGO, KS 07183500: Flow=1080cfs,Stage=8.34ft,Floodstage=21ft,2017-01-17 08:00,Not ranked,NEOSHO R NR PARSONS, KS 07183300: Stage=14.04ft,Floodstage=29ft,2017-01-17 13:15,Not ranked,NEOSHO R NR ERIE, KS 07182395: Stage=-0.85ft,2017-01-17 14:00,Not ranked,NEOSHO R AT HARTFORD, KS 07182390: Flow=438cfs,Stage=1.75ft,Floodstage=22ft,2017-01-17 13:30,Not ranked,NEOSHO R AT NEOSHO RAPIDS, KS 07182260: Flow=326cfs,Stage=2.59ft,Floodstage=20ft,2017-01-17 13:30,Not ranked,COTTONWOOD R AT EMPORIA, KS 07182200: Flow=65cfs,Stage=7.22ft,2017-01-17 13:30,Not ranked,SF COTTONWOOD R NR BAZAAR, KS 07180200: Stage=6.18ft,2017-01-17 13:30,Not ranked,COTTONWOOD R AT MARION, KS 07179785: Flow=21cfs,Stage=10.64ft,2017-01-17 13:30,Not ranked,NF COTTONWOOD R NR DURHAM, KS 07179750: Flow=88cfs,Stage=4.03ft,2017-01-17 13:30,Not ranked,NEOSHO R AT BURLINGAME RD NR EMPORIA, KS 07179710: Stage=11.51ft,2017-01-17 13:00,Not ranked,NEOSHO R NR DUNLAP, KS 07179700: Flow=40cfs,Stage=9.76ft,2017-01-17 13:15,Not ranked,ROCK C NR DUNLAP, KS 07179300: Flow=16cfs,Stage=8.16ft,2017-01-17 13:45,Not ranked,NEOSHO R NR PARKERVILLE, KS 07170990: Flow=2030cfs,Stage=6.06ft,2017-01-17 13:45,Not ranked,VERDIGRIS R AT COFFEYVILLE, KS 07170700: Stage=2.82ft,2017-01-17 13:00,Not ranked,BIG HILL C NR CHERRYVALE, KS 07165750: Flow=238cfs,Stage=8.34ft,2017-01-17 14:00,Not ranked,VERDIGRIS R NR VIRGIL, KS 07157940: Flow=28cfs,Stage=6.41ft,2017-01-17 14:00,Not ranked,BLUFF C NR BUTTERMILK, KS 07157740: Flow=75cfs,Stage=9.02ft,2017-01-17 13:30,Not ranked,CIMARRON R NR BUTTERMILK, KS 07148111: Flow=1180cfs,Stage=6.87ft,2017-01-17 13:30,Not ranked,GROUSE C NR SILVERDALE, KS 07147900: Stage=6.77ft,Floodstage=18ft,2017-01-17 13:15,Not ranked,WALNUT R AT ARKANSAS CITY, KS 07147190: Stage=7.53ft,Floodstage=21ft,2017-01-17 13:15,Not ranked,WHITEWATER R AT AUGUSTA, KS 07146800: Flow=70cfs,Stage=6.61ft,Floodstage=21ft,2017-01-17 13:00,Not ranked,WB WALNUT R NR EL DORADO, KS 07145600: Flow=6890cfs,Stage=11.96ft,Floodstage=17ft,2017-01-17 13:45,Not ranked,ARKANSAS R ON HWY 160 AT OXFORD, KS 07144795: Flow=0.43cfs,Stage=1.23ft,2015-11-12 10:00,Not ranked,NF NINNESCAH R AT CHENEY DAM, KS 07144790: Stage=1422.58ft,2017-01-17 13:00,Not ranked,CHENEY RE NR CHENEY, KS 07144570: Flow=3020cfs,Stage=8.98ft,Floodstage=16.5ft,2017-01-17 13:15,Not ranked,ARKANSAS R AT MULVANE, KS 07144490: Flow=503cfs,Stage=13.13ft,2017-01-17 13:15,Not ranked,COWSKIN C AT KELLOGG ST, WICHITA, KS 07144486: Flow=40cfs,Stage=6.43ft,2017-01-17 14:00,Not ranked,CALFSKIN C AT 119TH ST, WICHITA, KS 07144480: Stage=12.66ft,2017-01-17 13:30:00,Floodstage=18ft,Not ranked,Temporarily unavailable,COWSKIN C AT 119TH ST AT WICHITA, KS 07144470: Stage=15.07ft,2017-01-17 13:15,Not ranked,COWSKIN C AT 29TH ST NORTH OF WICHITA, KS 07144301: Flow=0.00cfs,Stage=6.49ft,2017-01-17 13:45,Not ranked,FLOODWAY AT ARKANSAS R AT WICHITA, KS 07144201: Flow=0.00cfs,Stage=1.98ft,2017-01-17 13:00,Not ranked,FLOODWAY AT L ARKANSAS R AT VALLEY CENTER, KS 07144100: Flow=739cfs,Stage=6.27ft,Floodstage=22ft,2017-01-17 13:15,Not ranked,L ARKANSAS R NR SEDGWICK, KS 07144050: Flow=148cfs,Stage=1.26ft,Floodstage=19ft,2017-01-17 13:15,Not ranked,EMMA C AT SEDGWICK, KS 07143672: Flow=320cfs,Stage=8.35ft,Floodstage=25ft,2017-01-17 13:30,Not ranked,L ARKANSAS R AT HWY 50 NR HALSTEAD, KS 07143375: Flow=754cfs,Stage=6.24ft,2017-01-17 13:15,Not ranked,ARKANSAS R NR MAIZE, KS 07143310: Stage=2.14ft,Floodstage=9.5ft,2017-01-17 13:15,Not ranked,COW C NR HUTCHINSON, KS 07142680: Flow=108cfs,Stage=8.90ft,2017-01-17 13:00,Not ranked,ARKANSAS R NR NICKERSON, KS 07142019: Flow=1.1cfs,Stage=2.11ft,2017-01-17 14:00,Not ranked,CHEYENNE BOTTOMS DV NR GREAT BEND, KS 07141900: Stage=3.23ft,2017-01-17 13:45:00,Floodstage=24ft,Not ranked,Ice affected,WALNUT C AT ALBERT, KS 07141780: Stage=7.72ft,2017-01-17 13:15:00,Floodstage=29ft,Not ranked,Ice affected,WALNUT C AT NEKOMA, KS 07141220: Flow=0.51cfs,Stage=4.06ft,2017-01-17 14:00,Not ranked,ARKANSAS R NR LARNED, KS 07141200: Flow=0.00cfs,Stage=5.79ft,Floodstage=31ft,2017-01-17 13:30,Not ranked,PAWNEE R AT ROZEL, KS 07141000: Stage=4.04ft,2017-01-17 13:45:00,Not ranked,Ice affected,BUCKNER C AT HANSTON, KS 07140900: Flow=5.1cfs,Stage=2.87ft,2017-01-17 13:15,Not ranked,BUCKNER C NR JETMORE, KS 07140890: Flow=0.94cfs,Stage=3.00ft,2017-01-17 13:45,Not ranked,BUCKNER C BL HORSETHIEF RE NR JETMORE, KS 07140880: Flow=6.1cfs,Stage=4.31ft,2017-01-17 13:15,Not ranked,BUCKNER C AB HORSETHIEF RE NR JETMORE, KS 07140850: Flow=0.00cfs,Stage=2.25ft,Floodstage=30ft,2017-01-17 13:00,Not ranked,PAWNEE R NR BURDETT, KS 07139500: Stage=6.00ft,Floodstage=11ft,2017-01-17 13:00,Not ranked,ARKANSAS R AT DODGE CITY, KS 07138075: Flow=5.0cfs,2016-11-19 00:15,Stage=1.46ft,2017-01-17 13:00:00,Not ranked,FARMERS DITCH NR DEERFIELD, KS 07138070: Stage=8.53ft,2017-01-17 13:45:00,Floodstage=14ft,Not ranked,Ice affected,ARKANSAS R AT DEERFIELD, KS 07138064: Flow=0.00cfs,Stage=1.95ft,2017-01-17 13:15,Not ranked,SOUTHSIDE DITCH RETURN NR DEERFIELD, KS 07138063: Flow=3.0cfs,2016-10-08 10:00,Stage=1.26ft,2017-01-17 13:00:00,Not ranked,SOUTHSIDE DITCH NR LAKIN, KS 07138050: Stage=2.61ft,2017-01-17 13:00:00,Not ranked,Equipment malfunction,AMAZON GREAT EASTERN DITCH NR LAKIN, KS 07138020: Flow=139cfs,Stage=6.30ft,2017-01-17 13:45,Not ranked,ARKANSAS R AT KENDALL, KS 07137010: Flow=0.00cfs,Stage=1.99ft,2017-01-17 13:45,Not ranked,FRONTIER DITCH RETURN NR COOLIDGE, KS 07137000: Flow=0.00cfs,Stage=9.53ft,2017-01-17 13:45,Not ranked,FRONTIER DITCH NR COOLIDGE, KS 07134990: Not ranked,Seasonal site,WILD HORSE CREEK ABOVE HOLLY, CO 06917630: Flow=4.0cfs,Stage=1.92ft,2017-01-17 13:15,Not ranked,East Drywood Creek at Prairie State Park 06917560: Flow=650cfs,Stage=6.96ft,Floodstage=25ft,2017-01-17 13:15,Not ranked,Marmaton River near Richards, MO 06917380: Flow=194cfs,2008-11-12 23:45,Not ranked,MARMATON R NR MARMATON, KS 06917240: Flow=95cfs,Stage=1.21ft,2017-01-17 14:00,Not ranked,MARMATON R NR UNIONTOWN, KS 06914995: Stage=916.88ft,2017-01-17 13:30,Not ranked,HILLSDALE LK NR HILLSDALE, KS 06914990: Flow=2.8cfs,Stage=3.46ft,2017-01-17 13:30,Not ranked,L BULL C NR SPRING HILL, KS 06914950: Flow=5.2cfs,Stage=2.48ft,2017-01-17 14:00,Not ranked,BIG BULL C NR EDGERTON, KS 06914500: Flow=514cfs,Stage=6.90ft,Floodstage=23ft,2017-01-17 13:30,Not ranked,POTTAWATOMIE C AT LANE, KS 06914100: Flow=287cfs,Stage=5.55ft,Floodstage=23ft,2017-01-17 13:45,Not ranked,POTTAWATOMIE C NR SCIPIO, KS 06912490: Stage=974.21ft,2017-01-17 13:45,Not ranked,POMONA LK NR QUENEMO, KS 06911490: Flow=62cfs,Stage=0.98ft,Floodstage=10ft,2017-01-17 13:30,Not ranked,SALT C AT LYNDON, KS 06910997: Stage=1034.54ft,2017-01-17 13:30,Not ranked,MELVERN LK NR MELVERN, KS 06893562: 2016-10-30 23:45,Not ranked,Brush Creek at Rockhill Road in Kansas City, MO 06893557: Flow=3.9cfs,Stage=35.68ft,Floodstage=47ft,2017-01-17 13:15,Not ranked,Brush Creek at Ward Parkway in Kansas City, MO 06893400: 2016-10-31 23:45,Not ranked,Indian Creek at 103rd St in Kansas City, MO 06893390: Flow=59cfs,Stage=10.42ft,Floodstage=20ft,2017-01-17 13:30,Not ranked,INDIAN C AT STATE LINE RD, LEAWOOD, KS 06893350: Flow=16cfs,Stage=2.16ft,2017-01-17 13:15,Not ranked,TOMAHAWK C NR OVERLAND PARK, KS 06893150: Not ranked,Temporarily unavailable,Blue River at Blue Ridge Blvd Ext in KC, MO 06893100: Flow=41cfs,Stage=5.62ft,2017-01-17 13:30,Not ranked,BLUE R AT KENNETH RD, OVERLAND PARK, KS 06892950: Stage=9.68ft,Floodstage=33ft,2017-01-17 13:45,Not ranked,KANSAS R AT KANSAS CITY, KS 06892518: Flow=4430cfs,Stage=10.95ft,2017-01-17 13:45,Not ranked,KANSAS R NR LAKE QUIVIRA, KS 06892513: Flow=55cfs,Stage=49.08ft,2017-01-17 13:30,Not ranked,MILL C AT JOHNSON DRIVE, SHAWNEE, KS 06892495: Flow=88cfs,Stage=57.80ft,2017-01-17 13:45,Not ranked,CEDAR C NR DESOTO, KS 06892494: Stage=3.41ft,2017-01-17 14:00,Not ranked,CAMP C AT 95TH ST NR DESOTO, KS 06892493: Stage=77.23ft,2017-01-17 14:00,Not ranked,CEDAR C AT 95TH ST NR DESOTO, KS 06892360: Flow=45cfs,Stage=5.53ft,2017-01-17 13:30,Not ranked,KILL C AT 95TH ST NR DESOTO, KS 06891850: Flow=282cfs,Stage=4.82ft,Floodstage=17ft,2017-01-17 13:30,Not ranked,STRANGER C AT EASTON, KS 06891810: Flow=199cfs,2015-06-09 23:45,Not ranked,STRANGER C NR POTTER, KS 06891478: Stage=874.48ft,2017-01-17 13:00,Not ranked,CLINTON LK NR LAWRENCE, KS 06891260: Flow=67cfs,Stage=4.59ft,2017-01-17 13:30,Not ranked,WAKARUSA R NR RICHLAND, KS 06891200: Stage=3.62ft,Floodstage=15ft,2017-01-17 13:15,Not ranked,WAKARUSA R AT WAKARUSA, KS 06891080: Flow=3500cfs,Stage=-10.69ft,Floodstage=18ft,2017-01-17 13:45,Not ranked,KANSAS R AT LAWRENCE, KS 06890898: Stage=889.23ft,2017-01-17 13:30,Not ranked,PERRY LK NR PERRY, KS 06889630: Flow=16cfs,Stage=4.86ft,Floodstage=24ft,2017-01-17 13:15,Not ranked,SHUNGANUNGA C AT TOPEKA, KS 06889585: Stage=4.93ft,Floodstage=15ft,2017-01-17 13:15,Not ranked,SHUNGANUNGA C AT GAGE BLVD, TOPEKA, KS 06888990: Flow=3110cfs,Stage=6.13ft,2017-01-17 12:30,Not ranked,KANSAS R AT TOPEKA WATER PLANT, KS 06888700: Stage=7.83ft,Floodstage=25ft,2017-01-17 13:30,Not ranked,CROSS C AT ROSSVILLE, KS 06888300: Flow=310cfs,Stage=9.97ft,Floodstage=27ft,2017-01-17 13:00,Not ranked,ROCK C NR LOUISVILLE, KS 06887500: Flow=2840cfs,Stage=4.84ft,Floodstage=19ft,2017-01-17 13:30,Not ranked,KANSAS R AT WAMEGO, KS 06886900: Stage=1072.46ft,2017-01-17 13:00,Not ranked,TUTTLE C LK NR MANHATTAN, KS 06886850: Stage=5.56ft,2017-01-17 13:45,Not ranked,MILL C NR RILEY, KS 06886500: Flow=144cfs,2017-01-16 14:45,Stage=2.33ft,2017-01-17 13:30:00,Floodstage=16ft,Not ranked,FANCY C AT WINKLER, KS 06884700: 2017-01-17 13:15,Not ranked,BIG BLUE R AT BLUE RAPIDS, KS 06884025: Stage=0.36ft,2017-01-17 14:00:00,Floodstage=19ft,Not ranked,Ice affected, Very low value,Little Blue River at Hollenberg, KS 06882000: Stage=4.95ft,2017-01-17 13:00:00,Floodstage=20ft,Not ranked,Ice affected,Big Blue River at Barneston, Nebr. 06879820: Stage=7.49ft,Floodstage=18ft,2017-01-17 14:00,Not ranked,KANSAS R AT MANHATTAN, KS 06879815: Stage=3.44ft,2017-01-17 14:00,Not ranked,WILDCAT C AT SETH CHILDS RD, MANHATTAN, KS 06879810: Flow=80cfs,Stage=3.48ft,Floodstage=14ft,2017-01-17 13:15,Not ranked,WILDCAT C AT SCENIC DRIVE, MANHATTAN, KS 06879805: Stage=8.21ft,2017-01-17 13:00,Not ranked,WILDCAT C AT KEATS, KS 06879650: Flow=0.00cfs,Stage=2.12ft,2017-01-17 13:45,Not ranked,KINGS C NR MANHATTAN, KS 06878600: Flow=363cfs,Stage=8.21ft,Floodstage=21ft,2017-01-17 13:15,Not ranked,LYON C NR JUNCTION CITY, KS 06876440: Flow=1120cfs,Stage=6.91ft,Floodstage=26ft,2017-01-17 13:15,Not ranked,SOLOMON R NR MINNEAPOLIS, KS 06876070: Stage=12.42ft,2017-01-17 13:15,Not ranked,SOLOMON R NR SIMPSON, KS 06876000: Stage=7.38ft,2017-01-17 13:00:00,Not ranked,Ice affected,SOLOMON R AT BELOIT, KS 06874000: Stage=5.49ft,2017-01-17 13:30:00,Floodstage=14ft,Not ranked,Ice affected,SF SOLOMON R AT OSBORNE, KS 06873460: Stage=5.77ft,2017-01-17 13:30:00,Floodstage=12ft,Not ranked,Ice affected,SF SOLOMON R AT WOODSTON, KS 06872500: Stage=8.96ft,2017-01-17 13:30:00,Floodstage=15ft,Not ranked,Ice affected,NF SOLOMON R AT PORTIS, KS 06871500: Stage=4.38ft,2017-01-17 13:45:00,Floodstage=9ft,Not ranked,Ice affected,BOW C NR STOCKTON, KS 06871000: Stage=3.76ft,2017-01-17 13:30:00,Floodstage=11ft,Not ranked,Ice affected,NF SOLOMON R AT GLADE, KS 06870300: Flow=52cfs,Stage=21.09ft,2017-01-17 13:15,Not ranked,GYPSUM C NR GYPSUM, KS 06870200: Stage=7.56ft,Floodstage=27ft,2017-01-17 13:45,Not ranked,SMOKY HILL R AT NEW CAMBRIA, KS 06869950: Flow=29cfs,Stage=3.49ft,Floodstage=24ft,2017-01-17 13:00,Not ranked,MULBERRY C NR SALINA, KS 06868850: Flow=220cfs,Stage=13.38ft,Floodstage=30ft,2017-01-17 13:45,Not ranked,SALINE R AT LINCOLN, KS 06868100: Stage=1516.48ft,2017-01-17 13:30,Not ranked,WILSON LK NR WILSON, KS 06867500: Flow=42cfs,Stage=10.33ft,2017-01-17 13:30,Not ranked,PARADISE C NR PARADISE, KS 06867000: Stage=6.44ft,2017-01-17 13:30:00,Floodstage=18ft,Not ranked,Ice affected,SALINE R NR RUSSELL, KS 06866900: Flow=3.2cfs,Stage=2.65ft,Floodstage=13ft,2017-01-17 13:00,Not ranked,SALINE R NR WAKEENEY, KS 06865000: Stage=1463.15ft,2017-01-17 13:30,Not ranked,KANOPOLIS LK NR KANOPOLIS, KS 06864050: Flow=58cfs,2011-06-08 23:45,Not ranked,SMOKY HILL R NR BUNKER HILL, KS 06863500: Stage=5.32ft,2017-01-17 13:30:00,Floodstage=26ft,Not ranked,Ice affected,BIG C NR HAYS, KS 06863420: Not ranked,Ice affected,BIG C NR ELLIS, KS 06863000: Flow=1.8cfs,2017-01-17 14:00,Not ranked,SMOKY HILL R AT PFEIFER, KS 06862850: Stage=2.47ft,2017-01-17 13:00:00,Floodstage=11ft,Not ranked,Ice affected,SMOKY HILL R BL SCHOENCHEN, KS 06862700: Stage=3.57ft,2017-01-17 13:30:00,Not ranked,Ice affected,SMOKY HILL R NR SCHOENCHEN, KS 06861500: Stage=2118.81ft,2017-01-17 13:15,Not ranked,CEDAR BLUFF RE NR ELLIS, KS 06860900: Flow=0.00cfs,Stage=7.08ft,2017-01-17 13:30,Not ranked,HACKBERRY C NR TREGO CENTER, KS 06857050: Stage=1141.70ft,2017-01-17 13:30,Not ranked,MILFORD LK NR JUNCTION CITY, KS 06855850: Flow=618cfs,Stage=9.99ft,2017-01-17 13:15,Not ranked,BUFFALO C 4 MI E OF JAMESTOWN, KS 06854500: Stage=2.72ft,2017-01-17 13:15:00,Floodstage=10ft,Not ranked,Ice affected,REPUBLICAN R AT SCANDIA, KS 06854000: 2017-01-17 13:45,Not ranked,WHITE ROCK C AT LOVEWELL, KS 06853500: Stage=3.78ft,2017-01-17 13:30:00,Floodstage=11ft,Not ranked,Ice affected,REPUBLICAN R NR HARDY, NE 06853020: Stage=7.05ft,2017-01-17 13:30:00,Floodstage=11ft,Not ranked,Ice affected,Republican River at Guide Rock, Nebr. 06852500: Not ranked,Seasonal site,Courtland Canal at Nebraska-Kansas Stateline 06848500: Stage=3.08ft,2017-01-17 13:30:00,Floodstage=21ft,Not ranked,Ice affected,PRAIRIE DOG C NR WOODRUFF, KS 06846500: Stage=3.23ft,2017-01-17 13:00:00,Floodstage=16ft,Not ranked,Ice affected,BEAVER C AT CEDAR BLUFFS, KS 06845110: Stage=6.26ft,2017-01-17 13:30:00,Floodstage=17ft,Not ranked,Ice affected,SAPPA C NR LYLE, KS 06827000: Flow=7.8cfs,Stage=3.54ft,2017-01-17 13:45,Not ranked,SF REPUBLICAN R NR CO-KS ST LINE, KS 06824000: Stage=1.82ft,2017-01-17 12:45:00,Not ranked,Ice affected,Rock Creek at Parks, Nebr. 06823500: Stage=1.79ft,2017-01-17 12:45:00,Floodstage=11ft,Not ranked,Ice affected,Buffalo Creek near Haigler, Nebr. 06821500: Not ranked,Ice affected,Arikaree River at Haigler, Nebr. 06820475: Stage=2.66ft,Floodstage=20ft,2017-01-17 13:00,Not ranked,MISSOURI R AT LEAVENWORTH, KS 06818300: Stage=8.00ft,Floodstage=22ft,2017-01-17 14:00,Not ranked,MISSOURI R AT ATCHISON, KS 06815000: Stage=7.12ft,2017-01-17 13:45:00,Floodstage=27ft,Not ranked,Ice affected,Big Nemaha River at Falls City, Nebr. Go to WaterWatch (offsite) for a larger map with additional options
USGS Home Water Resources Biology Geography Geology Geospatial

Accessibility FOIA Privacy Policies and Notices

Take Pride in America logo USA.gov logo U.S. Department of the Interior | U.S. Geological Survey
Page Contact Information: GS-W-KS_info@usgs.gov
Page Last Modified: 2017-01-11 15:15:06 CST